| time (UTC) | temp F | wind direction | speed knots | gust knots | rain 1hr in | rain 24hr in | rain mn in | humidity % | barometer mb |
| 20260906113307 | 64 | 95 | 0.0 | 0.0 | 0.00 | 0.00 | 0.00 | 94 | 1020.4 |
| 20260906113035 | 64 | 95 | 0.0 | 0.0 | 0.00 | 0.00 | 0.00 | 94 | 1020.3 |
| 20260906112307 | 64 | 95 | 0.0 | 0.0 | 0.00 | 0.00 | 0.00 | 94 | 1020.2 |
| 20260906111800 | 64 | 95 | 0.0 | 0.0 | 0.00 | 0.00 | 0.00 | 94 | 1020.0 |
| 20260906111255 | 64 | 95 | 0.0 | 0.0 | 0.00 | 0.00 | 0.00 | 94 | 1019.9 |
| 20260906110747 | 64 | 95 | 0.0 | 0.0 | 0.00 | 0.00 | 0.00 | 94 | 1019.8 |
| 20260906110242 | 64 | 95 | 0.0 | 0.0 | 0.00 | 0.00 | 0.00 | 94 | 1019.7 |
| 20260906110002 | 64 | 95 | 0.0 | 0.0 | 0.00 | 0.00 | 0.00 | 94 | 1019.7 |
| 20260906105230 | 64 | 95 | 0.0 | 0.0 | 0.00 | 0.00 | 0.00 | 94 | 1019.8 |
| 20260906104725 | 64 | 95 | 0.0 | 0.0 | 0.00 | 0.00 | 0.00 | 93 | 1019.9 |
| 20260906104219 | 65 | 95 | 0.0 | 0.0 | 0.00 | 0.00 | 0.00 | 94 | 1019.8 |
| 20260906103713 | 65 | 95 | 0.0 | 0.0 | 0.00 | 0.00 | 0.00 | 94 | 1019.7 |
| 20260906103206 | 65 | 95 | 0.0 | 0.0 | 0.00 | 0.00 | 0.00 | 94 | 1019.6 |
| 20260906102700 | 65 | 95 | 0.0 | 0.0 | 0.00 | 0.00 | 0.00 | 94 | 1019.7 |
| 20260906102154 | 65 | 95 | 0.0 | 0.0 | 0.00 | 0.00 | 0.00 | 94 | 1019.7 |
| 20260906102127 | 65 | 95 | 0.0 | 0.0 | 0.00 | 0.00 | 0.00 | 94 | 1019.6 |
| 20260906101142 | 64 | 95 | 0.0 | 0.0 | 0.00 | 0.00 | 0.00 | 94 | 1019.8 |
| 20260906100636 | 64 | 95 | 0.0 | 0.0 | 0.00 | 0.00 | 0.00 | 93 | 1019.6 |
| 20260906100130 | 64 | 95 | 0.0 | 0.0 | 0.00 | 0.00 | 0.00 | 93 | 1019.6 |
| 20260906095625 | 64 | 95 | 0.0 | 0.0 | 0.00 | 0.00 | 0.00 | 93 | 1019.4 |
| 20260906095117 | 65 | 95 | 0.0 | 0.0 | 0.00 | 0.00 | 0.00 | 93 | 1019.3 |
| 20260906094611 | 65 | 95 | 0.0 | 0.0 | 0.00 | 0.00 | 0.00 | 93 | 1019.3 |
| 20260906094106 | 65 | 95 | 0.0 | 0.0 | 0.00 | 0.00 | 0.00 | 93 | 1019.3 |
| 20260906093600 | 65 | 95 | 0.0 | 0.0 | 0.00 | 0.00 | 0.00 | 94 | 1019.4 |
| 20260906093055 | 65 | 95 | 0.0 | 0.0 | 0.00 | 0.00 | 0.00 | 93 | 1019.4 |
| 20260906092550 | 65 | 95 | 0.0 | 0.0 | 0.00 | 0.00 | 0.00 | 93 | 1019.3 |
| 20260906092042 | 65 | 95 | 0.0 | 0.0 | 0.00 | 0.00 | 0.00 | 93 | 1019.3 |
| 20260906091800 | 65 | 95 | 0.0 | 0.0 | 0.00 | 0.00 | 0.00 | 93 | 1019.3 |
| 20260906091030 | 65 | 95 | 0.0 | 0.0 | 0.00 | 0.00 | 0.00 | 93 | 1019.3 |
| 20260906090608 | 65 | 95 | 0.0 | 0.0 | 0.00 | 0.00 | 0.00 | 93 | 1019.3 |
| 20260906085512 | 65 | 95 | 0.0 | 0.0 | 0.00 | 0.00 | 0.00 | 93 | 1019.2 |
| 20260906085006 | 65 | 95 | 0.0 | 0.0 | 0.00 | 0.00 | 0.00 | 93 | 1019.2 |
| 20260906084459 | 65 | 95 | 0.0 | 0.0 | 0.00 | 0.00 | 0.00 | 93 | 1019.4 |
| 20260906083956 | 65 | 95 | 0.0 | 0.0 | 0.00 | 0.00 | 0.00 | 93 | 1019.4 |
| 20260906083714 | 65 | 95 | 0.0 | 0.0 | 0.00 | 0.00 | 0.00 | 93 | 1019.3 |
| 20260906082941 | 65 | 95 | 0.0 | 0.0 | 0.00 | 0.00 | 0.00 | 93 | 1019.2 |
| 20260906082435 | 65 | 95 | 0.0 | 0.0 | 0.00 | 0.00 | 0.00 | 93 | 1019.1 |
| 20260906082157 | 65 | 95 | 0.0 | 0.0 | 0.00 | 0.00 | 0.00 | 93 | 1019.3 |
| 20260906081424 | 65 | 95 | 0.0 | 0.0 | 0.00 | 0.00 | 0.00 | 93 | 1019.2 |
| 20260906080919 | 65 | 95 | 0.0 | 0.0 | 0.00 | 0.00 | 0.00 | 93 | 1019.3 |
| 20260906080633 | 65 | 95 | 0.0 | 0.0 | 0.00 | 0.00 | 0.00 | 93 | 1019.3 |
| 20260906075907 | 65 | 95 | 0.0 | 0.0 | 0.00 | 0.00 | 0.00 | 93 | 1019.3 |
| 20260906075847 | 65 | 95 | 0.0 | 0.0 | 0.00 | 0.00 | 0.00 | 93 | 1019.3 |
| 20260906074854 | 65 | 95 | 0.0 | 0.0 | 0.00 | 0.00 | 0.00 | 93 | 1019.3 |
| 20260906074430 | 66 | 95 | 0.0 | 0.0 | 0.00 | 0.00 | 0.00 | 93 | 1019.2 |
| 20260906073336 | 66 | 95 | 0.0 | 0.0 | 0.00 | 0.00 | 0.00 | 93 | 1019.3 |
| 20260906073314 | 66 | 95 | 0.0 | 0.0 | 0.00 | 0.00 | 0.00 | 93 | 1019.3 |
| 20260906072546 | 66 | 95 | 0.0 | 0.0 | 0.00 | 0.00 | 0.00 | 93 | 1019.3 |
| 20260906071819 | 66 | 95 | 0.0 | 0.0 | 0.00 | 0.00 | 0.00 | 93 | 1019.3 |
| 20260906071312 | 66 | 95 | 0.0 | 0.0 | 0.00 | 0.00 | 0.00 | 93 | 1019.3 |
| 20260906070806 | 66 | 95 | 0.0 | 0.0 | 0.00 | 0.00 | 0.00 | 93 | 1019.3 |
| 20260906070300 | 66 | 95 | 0.0 | 0.0 | 0.00 | 0.00 | 0.00 | 93 | 1019.3 |
| 20260906065753 | 66 | 95 | 0.0 | 0.0 | 0.00 | 0.00 | 0.00 | 93 | 1019.3 |
| 20260906065248 | 66 | 95 | 0.0 | 0.0 | 0.00 | 0.00 | 0.00 | 93 | 1019.3 |
| 20260906064743 | 66 | 95 | 0.0 | 0.0 | 0.00 | 0.00 | 0.00 | 93 | 1019.4 |
| 20260906064236 | 66 | 95 | 0.0 | 0.0 | 0.00 | 0.00 | 0.00 | 93 | 1019.4 |
| 20260906063730 | 66 | 95 | 0.0 | 0.0 | 0.00 | 0.00 | 0.00 | 93 | 1019.6 |
| 20260906063224 | 67 | 37 | 0.0 | 0.0 | 0.00 | 0.00 | 0.00 | 92 | 1019.4 |
| 20260906062717 | 67 | 336 | 0.0 | 0.0 | 0.00 | 0.00 | 0.00 | 93 | 1019.5 |
| 20260906062213 | 67 | 336 | 0.0 | 0.9 | 0.00 | 0.00 | 0.00 | 93 | 1019.5 |
| 20260906061706 | 67 | 336 | 0.0 | 0.9 | 0.00 | 0.00 | 0.00 | 92 | 1019.5 |
| 20260906061200 | 67 | 336 | 0.0 | 0.9 | 0.00 | 0.00 | 0.00 | 92 | 1019.5 |
| 20260906060654 | 67 | 336 | 0.9 | 2.6 | 0.00 | 0.00 | 0.00 | 92 | 1019.4 |
| 20260906060153 | 68 | 336 | 0.9 | 3.5 | 0.00 | 0.00 | 0.00 | 93 | 1019.6 |
| 20260906055654 | 68 | 302 | 1.7 | 3.5 | 0.00 | 0.00 | 0.00 | 93 | 1019.5 |
| 20260906055154 | 68 | 337 | 1.7 | 3.5 | 0.00 | 0.00 | 0.00 | 92 | 1019.5 |
| 20260906054654 | 68 | 317 | 1.7 | 3.5 | 0.00 | 0.00 | 0.00 | 93 | 1019.4 |
| 20260906054154 | 68 | 328 | 1.7 | 3.5 | 0.00 | 0.00 | 0.00 | 92 | 1019.5 |
| 20260906053653 | 68 | 326 | 0.9 | 3.5 | 0.00 | 0.00 | 0.00 | 93 | 1019.5 |
| 20260906053154 | 67 | 305 | 0.0 | 2.6 | 0.00 | 0.00 | 0.00 | 93 | 1019.3 |
| 20260906052654 | 67 | 239 | 0.0 | 0.9 | 0.00 | 0.00 | 0.00 | 92 | 1019.4 |
| 20260906052154 | 67 | 239 | 0.0 | 0.9 | 0.00 | 0.00 | 0.00 | 92 | 1019.4 |
| 20260906051653 | 67 | 239 | 0.0 | 0.9 | 0.00 | 0.00 | 0.00 | 92 | 1019.4 |
| 20260906051153 | 67 | 239 | 0.0 | 0.9 | 0.00 | 0.00 | 0.00 | 92 | 1019.4 |
| 20260906050654 | 67 | 239 | 0.0 | 0.0 | 0.00 | 0.00 | 0.00 | 92 | 1019.3 |
| 20260906050416 | 67 | 239 | 0.0 | 0.0 | 0.00 | 0.00 | 0.00 | 92 | 1019.3 |
| 20260906045650 | 67 | 239 | 0.0 | 0.0 | 0.00 | 0.00 | 0.00 | 92 | 1019.2 |
| 20260906045406 | 67 | 239 | 0.0 | 0.0 | 0.00 | 0.00 | 0.00 | 92 | 1019.1 |
| 20260906044637 | 68 | 239 | 0.0 | 0.9 | 0.00 | 0.00 | 0.00 | 91 | 1019.1 |
| 20260906044130 | 68 | 239 | 0.0 | 0.9 | 0.00 | 0.00 | 0.00 | 92 | 1019.1 |
| 20260906043631 | 68 | 239 | 0.0 | 0.9 | 0.00 | 0.00 | 0.00 | 91 | 1019.1 |
| 20260906043131 | 68 | 239 | 0.0 | 0.9 | 0.00 | 0.00 | 0.00 | 91 | 1019.0 |
| 20260906042631 | 68 | 229 | 0.0 | 1.7 | 0.00 | 0.00 | 0.00 | 91 | 1018.9 |
| 20260906042402 | 68 | 229 | 0.0 | 1.7 | 0.00 | 0.00 | 0.00 | 91 | 1018.8 |
| 20260906041629 | 68 | 229 | 0.0 | 0.9 | 0.00 | 0.00 | 0.00 | 91 | 1018.7 |
| 20260906041128 | 68 | 229 | 0.0 | 0.9 | 0.00 | 0.00 | 0.00 | 91 | 1018.7 |
| 20260906040627 | 68 | 229 | 0.0 | 0.9 | 0.00 | 0.00 | 0.00 | 91 | 1018.6 |
| 20260906040125 | 68 | 229 | 0.0 | 0.9 | 0.00 | 0.00 | 0.00 | 91 | 1018.6 |
| 20260906035623 | 69 | 229 | 0.0 | 0.9 | 0.00 | 0.00 | 0.00 | 91 | 1018.5 |
| 20260906035121 | 69 | 270 | 0.0 | 0.0 | 0.00 | 0.00 | 0.00 | 91 | 1018.6 |
| 20260906034621 | 69 | 270 | 0.0 | 0.9 | 0.00 | 0.00 | 0.00 | 91 | 1018.5 |
| 20260906034120 | 69 | 288 | 0.0 | 1.7 | 0.00 | 0.00 | 0.00 | 91 | 1018.4 |
| 20260906033618 | 69 | 288 | 0.0 | 1.7 | 0.00 | 0.00 | 0.00 | 91 | 1018.3 |
| 20260906033117 | 69 | 304 | 0.0 | 1.7 | 0.00 | 0.00 | 0.00 | 91 | 1018.3 |
| 20260906032617 | 69 | 304 | 0.0 | 1.7 | 0.00 | 0.00 | 0.00 | 91 | 1018.3 |
| 20260906032117 | 69 | 257 | 0.0 | 0.9 | 0.00 | 0.00 | 0.00 | 90 | 1018.1 |
| 20260906031614 | 69 | 303 | 0.0 | 0.9 | 0.00 | 0.00 | 0.00 | 90 | 1018.3 |
| 20260906031113 | 69 | 303 | 0.0 | 0.9 | 0.00 | 0.00 | 0.00 | 90 | 1018.2 |
| 20260906030613 | 70 | 303 | 0.0 | 1.7 | 0.00 | 0.00 | 0.00 | 90 | 1018.2 |
| 20260906030114 | 70 | 303 | 0.0 | 1.7 | 0.00 | 0.00 | 0.00 | 90 | 1018.2 |
| 20260906025612 | 70 | 5 | 0.0 | 1.7 | 0.00 | 0.00 | 0.00 | 90 | 1018.1 |
| 20260906025113 | 70 | 306 | 0.0 | 1.7 | 0.00 | 0.00 | 0.00 | 90 | 1018.2 |
| 20260906024614 | 70 | 306 | 0.0 | 2.6 | 0.00 | 0.00 | 0.00 | 90 | 1018.2 |
| 20260906024113 | 70 | 74 | 0.0 | 2.6 | 0.00 | 0.00 | 0.00 | 90 | 1018.2 |
| 20260906023837 | 70 | 24 | 0.0 | 2.6 | 0.00 | 0.00 | 0.00 | 90 | 1018.2 |
| 20260906023113 | 70 | 113 | 0.0 | 2.6 | 0.00 | 0.00 | 0.00 | 90 | 1018.1 |
| 20260906022612 | 71 | 109 | 0.0 | 1.7 | 0.00 | 0.00 | 0.00 | 89 | 1018.2 |
| 20260906022113 | 71 | 290 | 0.0 | 1.7 | 0.00 | 0.00 | 0.00 | 89 | 1018.3 |
| 20260906021612 | 71 | 355 | 0.0 | 0.9 | 0.00 | 0.00 | 0.00 | 89 | 1018.1 |
| 20260906021113 | 71 | 286 | 0.0 | 0.9 | 0.00 | 0.00 | 0.00 | 89 | 1018.1 |
| 20260906020610 | 71 | 340 | 0.0 | 0.9 | 0.00 | 0.00 | 0.00 | 89 | 1018.1 |
| 20260906020110 | 71 | 340 | 0.0 | 0.9 | 0.00 | 0.00 | 0.00 | 89 | 1018.2 |
| 20260906015826 | 71 | 340 | 0.0 | 0.9 | 0.00 | 0.00 | 0.00 | 88 | 1018.2 |
| 20260906015104 | 71 | 340 | 0.0 | 0.9 | 0.00 | 0.00 | 0.00 | 89 | 1018.0 |
| 20260906014604 | 71 | 340 | 0.0 | 0.9 | 0.00 | 0.00 | 0.00 | 89 | 1018.0 |
| 20260906014105 | 72 | 340 | 0.0 | 0.9 | 0.00 | 0.00 | 0.00 | 89 | 1017.9 |
| 20260906013603 | 72 | 340 | 0.0 | 0.9 | 0.00 | 0.00 | 0.00 | 89 | 1018.0 |
| 20260906013100 | 72 | 313 | 0.0 | 3.5 | 0.00 | 0.00 | 0.00 | 89 | 1018.1 |
| 20260906012558 | 72 | 313 | 0.0 | 3.5 | 0.00 | 0.00 | 0.00 | 89 | 1018.2 |
| 20260906012058 | 72 | 88 | 0.0 | 1.7 | 0.00 | 0.00 | 0.00 | 88 | 1018.1 |
| 20260906011820 | 72 | 234 | 0.0 | 2.6 | 0.00 | 0.00 | 0.00 | 88 | 1018.1 |
| 20260906011046 | 72 | 323 | 0.0 | 2.6 | 0.00 | 0.00 | 0.00 | 88 | 1018.1 |
| 20260906010540 | 72 | 264 | 0.0 | 1.7 | 0.00 | 0.00 | 0.00 | 88 | 1018.2 |
| 20260906010035 | 72 | 296 | 0.0 | 1.7 | 0.00 | 0.00 | 0.00 | 88 | 1018.1 |
| 20260906005529 | 72 | 178 | 0.0 | 2.6 | 0.00 | 0.00 | 0.00 | 88 | 1018.1 |
| 20260906005021 | 72 | 187 | 0.9 | 2.6 | 0.00 | 0.00 | 0.00 | 88 | 1018.2 |
| 20260906005000 | 72 | 162 | 0.9 | 2.6 | 0.00 | 0.00 | 0.00 | 87 | 1018.1 |
| 20260906004010 | 72 | 55 | 0.9 | 2.6 | 0.00 | 0.00 | 0.00 | 87 | 1018.0 |
| 20260906003505 | 72 | 119 | 0.0 | 1.7 | 0.00 | 0.00 | 0.00 | 87 | 1017.9 |
| 20260906002958 | 73 | 263 | 0.0 | 2.6 | 0.00 | 0.00 | 0.00 | 88 | 1017.8 |
| 20260906002453 | 73 | 34 | 0.9 | 2.6 | 0.00 | 0.00 | 0.00 | 87 | 1017.8 |
| 20260906001947 | 73 | 330 | 0.9 | 2.6 | 0.00 | 0.00 | 0.00 | 87 | 1017.8 |
| 20260906001440 | 73 | 136 | 0.9 | 2.6 | 0.00 | 0.00 | 0.00 | 86 | 1017.8 |
| 20260906000934 | 74 | 64 | 0.9 | 2.6 | 0.00 | 0.00 | 0.00 | 86 | 1017.8 |
| 20260906000428 | 74 | 32 | 0.9 | 5.2 | 0.00 | 0.00 | 0.00 | 86 | 1017.8 |
| 20260905235922 | 74 | 71 | 1.7 | 6.1 | 0.00 | 0.00 | 0.00 | 85 | 1017.9 |
| 20260905235416 | 74 | 40 | 0.9 | 6.1 | 0.00 | 0.00 | 0.00 | 85 | 1017.8 |
| 20260905235137 | 75 | 355 | 0.9 | 3.5 | 0.00 | 0.00 | 0.00 | 84 | 1017.7 |
| 20260905234403 | 75 | 238 | 0.9 | 7.0 | 0.00 | 0.00 | 0.00 | 83 | 1017.6 |
| 20260905233857 | 75 | 0 | 1.7 | 7.0 | 0.00 | 0.00 | 0.00 | 84 | 1017.5 |
| 20260905233352 | 76 | 311 | 1.7 | 6.1 | 0.00 | 0.00 | 0.00 | 83 | 1017.5 |
| 20260905232847 | 76 | 0 | 1.7 | 6.1 | 0.00 | 0.00 | 0.00 | 83 | 1017.4 |
| 20260905232603 | 77 | 162 | 1.7 | 6.1 | 0.00 | 0.00 | 0.00 | 82 | 1017.3 |
| 20260905231834 | 77 | 164 | 0.9 | 6.1 | 0.00 | 0.00 | 0.00 | 82 | 1017.4 |
| 20260905231327 | 78 | 28 | 0.9 | 3.5 | 0.00 | 0.00 | 0.00 | 82 | 1017.4 |
| 20260905230822 | 78 | 337 | 1.7 | 5.2 | 0.00 | 0.00 | 0.00 | 82 | 1017.5 |
| 20260905230401 | 78 | 36 | 1.7 | 5.2 | 0.00 | 0.00 | 0.00 | 81 | 1017.5 |
| 20260905225306 | 79 | 116 | 0.9 | 3.5 | 0.00 | 0.00 | 0.00 | 82 | 1017.2 |
| 20260905224758 | 79 | 190 | 0.9 | 4.3 | 0.00 | 0.00 | 0.00 | 82 | 1017.1 |
| 20260905224252 | 79 | 350 | 0.9 | 4.3 | 0.00 | 0.00 | 0.00 | 82 | 1017.1 |
| 20260905223746 | 79 | 55 | 0.9 | 3.5 | 0.00 | 0.00 | 0.00 | 82 | 1017.0 |
| 20260905223240 | 79 | 55 | 0.9 | 3.5 | 0.00 | 0.00 | 0.00 | 81 | 1017.1 |
| 20260905222734 | 79 | 94 | 0.9 | 7.0 | 0.00 | 0.00 | 0.00 | 81 | 1017.1 |
| 20260905222227 | 80 | 124 | 1.7 | 7.0 | 0.00 | 0.00 | 0.00 | 80 | 1017.1 |
| 20260905221721 | 80 | 103 | 0.9 | 2.6 | 0.00 | 0.00 | 0.00 | 81 | 1017.0 |
| 20260905221216 | 80 | 244 | 0.9 | 2.6 | 0.00 | 0.00 | 0.00 | 82 | 1016.9 |
| 20260905220709 | 80 | 93 | 0.9 | 2.6 | 0.00 | 0.00 | 0.00 | 81 | 1017.0 |
| 20260905220204 | 80 | 22 | 0.9 | 2.6 | 0.00 | 0.00 | 0.00 | 81 | 1017.0 |
| 20260905215658 | 81 | 11 | 0.9 | 4.3 | 0.00 | 0.00 | 0.00 | 80 | 1016.9 |
| 20260905215156 | 82 | 313 | 0.9 | 6.1 | 0.00 | 0.00 | 0.00 | 79 | 1016.9 |
| 20260905214656 | 82 | 266 | 1.7 | 6.1 | 0.00 | 0.00 | 0.00 | 79 | 1016.9 |
| 20260905214157 | 82 | 57 | 0.9 | 6.1 | 0.00 | 0.00 | 0.00 | 80 | 1016.8 |
| 20260905213920 | 82 | 150 | 0.9 | 2.6 | 0.00 | 0.00 | 0.00 | 80 | 1016.6 |
| 20260905213415 | 82 | 75 | 1.7 | 6.1 | 0.00 | 0.00 | 0.00 | 80 | 1016.6 |
| 20260905212657 | 82 | 115 | 1.7 | 6.1 | 0.00 | 0.00 | 0.00 | 81 | 1016.5 |
| 20260905212156 | 82 | 315 | 1.7 | 6.1 | 0.00 | 0.00 | 0.00 | 80 | 1016.5 |
| 20260905211656 | 82 | 163 | 1.7 | 6.1 | 0.00 | 0.00 | 0.00 | 81 | 1016.5 |
| 20260905211155 | 82 | 320 | 0.9 | 4.3 | 0.00 | 0.00 | 0.00 | 79 | 1016.5 |
| 20260905210656 | 82 | 300 | 0.9 | 4.3 | 0.00 | 0.00 | 0.00 | 80 | 1016.5 |
| 20260905210156 | 82 | 271 | 0.9 | 5.2 | 0.00 | 0.00 | 0.00 | 80 | 1016.5 |
| 20260905205655 | 82 | 291 | 1.7 | 5.2 | 0.00 | 0.00 | 0.00 | 80 | 1016.4 |
| 20260905205155 | 81 | 336 | 1.7 | 4.3 | 0.00 | 0.00 | 0.00 | 80 | 1016.5 |
| 20260905204655 | 81 | 11 | 0.9 | 4.3 | 0.00 | 0.00 | 0.00 | 81 | 1016.6 |
| 20260905204154 | 81 | 172 | 0.9 | 4.3 | 0.00 | 0.00 | 0.00 | 80 | 1016.6 |
| 20260905203654 | 81 | 295 | 0.9 | 4.3 | 0.00 | 0.00 | 0.00 | 80 | 1016.5 |
| 20260905203154 | 81 | 337 | 0.9 | 3.5 | 0.00 | 0.00 | 0.00 | 80 | 1016.6 |
| 20260905202919 | 81 | 319 | 1.7 | 3.5 | 0.00 | 0.00 | 0.00 | 79 | 1016.6 |
| 20260905202415 | 81 | 311 | 1.7 | 4.3 | 0.00 | 0.00 | 0.00 | 80 | 1016.5 |
| 20260905201654 | 81 | 323 | 1.7 | 4.3 | 0.00 | 0.00 | 0.00 | 80 | 1016.4 |
| 20260905201153 | 81 | 313 | 1.7 | 7.0 | 0.00 | 0.00 | 0.00 | 80 | 1016.5 |
| 20260905200654 | 80 | 178 | 1.7 | 7.0 | 0.00 | 0.00 | 0.00 | 80 | 1016.5 |
| 20260905200154 | 80 | 351 | 1.7 | 7.0 | 0.00 | 0.00 | 0.00 | 81 | 1016.5 |
| 20260905195652 | 80 | 331 | 2.6 | 7.0 | 0.00 | 0.00 | 0.00 | 82 | 1016.6 |
| 20260905195151 | 79 | 321 | 1.7 | 7.0 | 0.00 | 0.00 | 0.00 | 82 | 1016.7 |
| 20260905194652 | 79 | 287 | 1.7 | 3.5 | 0.00 | 0.00 | 0.00 | 83 | 1016.8 |
| 20260905194153 | 79 | 236 | 2.6 | 4.3 | 0.00 | 0.00 | 0.00 | 84 | 1016.8 |
| 20260905193651 | 79 | 313 | 1.7 | 4.3 | 0.00 | 0.00 | 0.00 | 84 | 1016.7 |
| 20260905193151 | 79 | 306 | 1.7 | 4.3 | 0.00 | 0.00 | 0.00 | 84 | 1016.8 |
| 20260905192915 | 78 | 300 | 0.9 | 3.5 | 0.00 | 0.00 | 0.00 | 85 | 1017.0 |
| 20260905192153 | 78 | 306 | 0.0 | 1.7 | 0.00 | 0.00 | 0.00 | 85 | 1017.0 |
| 20260905191914 | 78 | 139 | 0.9 | 1.7 | 0.00 | 0.00 | 0.00 | 85 | 1017.1 |
| 20260905191631 | 78 | 34 | 1.7 | 4.3 | 0.00 | 0.00 | 0.00 | 85 | 1017.0 |
| 20260905190911 | 78 | 355 | 1.7 | 4.3 | 0.00 | 0.00 | 0.00 | 85 | 1017.1 |
| 20260905190140 | 78 | 288 | 1.7 | 4.3 | 0.00 | 0.00 | 0.00 | 86 | 1017.1 |
| 20260905185728 | 78 | 36 | 1.7 | 4.3 | 0.00 | 0.00 | 0.00 | 86 | 1017.2 |
| 20260905184639 | 77 | 328 | 0.9 | 4.3 | 0.00 | 0.00 | 0.00 | 86 | 1017.2 |
| 20260905184140 | 77 | 265 | 0.9 | 4.3 | 0.00 | 0.00 | 0.00 | 87 | 1017.3 |
| 20260905183910 | 77 | 325 | 1.7 | 4.3 | 0.00 | 0.00 | 0.00 | 87 | 1017.3 |
| 20260905183135 | 77 | 309 | 0.9 | 3.5 | 0.00 | 0.00 | 0.00 | 87 | 1017.3 |
| 20260905182635 | 77 | 31 | 0.9 | 2.6 | 0.00 | 0.00 | 0.00 | 87 | 1017.5 |
| 20260905182134 | 77 | 355 | 1.7 | 4.3 | 0.00 | 0.00 | 0.00 | 87 | 1017.3 |
| 20260905181902 | 77 | 32 | 1.7 | 4.3 | 0.00 | 0.00 | 0.00 | 88 | 1017.2 |
| 20260905181136 | 76 | 319 | 1.7 | 4.3 | 0.00 | 0.00 | 0.00 | 88 | 1017.2 |
| 20260905180631 | 76 | 317 | 0.9 | 4.3 | 0.00 | 0.00 | 0.00 | 88 | 1017.3 |
| 20260905180133 | 76 | 314 | 0.9 | 4.3 | 0.00 | 0.00 | 0.00 | 88 | 1017.3 |
| 20260905175631 | 76 | 189 | 0.9 | 2.6 | 0.00 | 0.00 | 0.00 | 88 | 1017.3 |
| 20260905175348 | 76 | 327 | 0.9 | 3.5 | 0.00 | 0.00 | 0.00 | 88 | 1017.2 |
| 20260905174630 | 76 | 342 | 0.9 | 5.2 | 0.00 | 0.00 | 0.00 | 88 | 1017.3 |
| 20260905174129 | 76 | 22 | 0.9 | 5.2 | 0.00 | 0.00 | 0.00 | 89 | 1017.2 |
| 20260905173629 | 76 | 113 | 0.9 | 3.5 | 0.00 | 0.00 | 0.00 | 89 | 1017.2 |
| 20260905173125 | 76 | 44 | 0.9 | 4.3 | 0.00 | 0.00 | 0.00 | 89 | 1017.2 |
| 20260905172618 | 75 | 278 | 0.9 | 4.3 | 0.00 | 0.00 | 0.00 | 89 | 1017.2 |
| 20260905172112 | 76 | 141 | 0.9 | 3.5 | 0.00 | 0.00 | 0.00 | 89 | 1017.3 |
| 20260905171606 | 75 | 350 | 0.9 | 3.5 | 0.00 | 0.00 | 0.00 | 89 | 1017.3 |
| 20260905171100 | 75 | 313 | 0.0 | 2.6 | 0.00 | 0.00 | 0.00 | 89 | 1017.4 |
| 20260905170554 | 75 | 277 | 0.9 | 3.5 | 0.00 | 0.00 | 0.00 | 89 | 1017.4 |
| 20260905170047 | 75 | 35 | 0.9 | 3.5 | 0.00 | 0.00 | 0.00 | 90 | 1017.4 |
| 20260905165802 | 75 | 130 | 0.9 | 2.6 | 0.00 | 0.00 | 0.00 | 90 | 1017.5 |
| 20260905165036 | 75 | 355 | 0.9 | 2.6 | 0.00 | 0.00 | 0.00 | 90 | 1017.6 |
| 20260905164530 | 75 | 284 | 0.0 | 2.6 | 0.00 | 0.00 | 0.00 | 90 | 1017.7 |
| 20260905164024 | 75 | 281 | 0.0 | 3.5 | 0.00 | 0.00 | 0.00 | 90 | 1017.6 |
| 20260905163516 | 75 | 67 | 0.0 | 3.5 | 0.00 | 0.00 | 0.00 | 90 | 1017.6 |
| 20260905163011 | 75 | 328 | 0.0 | 0.9 | 0.00 | 0.00 | 0.00 | 90 | 1017.6 |
| 20260905162505 | 75 | 184 | 0.0 | 0.9 | 0.00 | 0.00 | 0.00 | 90 | 1017.5 |
| 20260905161959 | 75 | 153 | 0.0 | 0.9 | 0.00 | 0.01 | 0.00 | 90 | 1017.5 |
| 20260905161453 | 75 | 248 | 0.0 | 0.9 | 0.00 | 0.02 | 0.00 | 90 | 1017.5 |
| 20260905160947 | 75 | 229 | 0.0 | 0.9 | 0.00 | 0.04 | 0.00 | 90 | 1017.6 |
| 20260905160441 | 75 | 123 | 0.0 | 0.9 | 0.00 | 0.07 | 0.00 | 90 | 1017.5 |
| 20260905155934 | 75 | 127 | 0.0 | 0.9 | 0.00 | 0.07 | 0.00 | 90 | 1017.5 |
| 20260905155428 | 75 | 138 | 0.0 | 0.9 | 0.00 | 0.07 | 0.00 | 90 | 1017.4 |
| 20260905154924 | 75 | 254 | 0.0 | 0.0 | 0.00 | 0.07 | 0.00 | 91 | 1017.3 |
| 20260905154417 | 75 | 300 | 0.0 | 0.9 | 0.00 | 0.07 | 0.00 | 91 | 1017.3 |
| 20260905153912 | 75 | 294 | 0.0 | 0.9 | 0.00 | 0.07 | 0.00 | 91 | 1017.2 |
| 20260905153405 | 75 | 200 | 0.0 | 0.9 | 0.00 | 0.07 | 0.00 | 91 | 1017.1 |
| 20260905152900 | 75 | 343 | 0.0 | 0.9 | 0.00 | 0.07 | 0.00 | 91 | 1017.0 |
| 20260905152354 | 75 | 342 | 0.0 | 0.9 | 0.00 | 0.07 | 0.00 | 92 | 1017.1 |
| 20260905151847 | 75 | 248 | 0.0 | 0.9 | 0.00 | 0.07 | 0.00 | 93 | 1016.9 |
| 20260905151341 | 74 | 319 | 0.0 | 0.9 | 0.00 | 0.07 | 0.00 | 93 | 1016.9 |
| 20260905150835 | 74 | 123 | 0.0 | 0.9 | 0.00 | 0.07 | 0.00 | 93 | 1016.9 |
| 20260905150329 | 74 | 150 | 0.0 | 0.9 | 0.00 | 0.07 | 0.00 | 93 | 1016.8 |
| 20260905150050 | 74 | 350 | 0.0 | 0.9 | 0.00 | 0.07 | 0.00 | 94 | 1016.8 |
| 20260905145317 | 74 | 355 | 0.0 | 0.9 | 0.00 | 0.07 | 0.00 | 93 | 1016.7 |
| 20260905144811 | 74 | 67 | 0.0 | 0.9 | 0.00 | 0.07 | 0.00 | 94 | 1016.6 |
| 20260905144305 | 74 | 97 | 0.0 | 0.9 | 0.00 | 0.07 | 0.00 | 94 | 1016.6 |
| 20260905144020 | 74 | 304 | 0.0 | 0.9 | 0.00 | 0.07 | 0.00 | 94 | 1016.7 |
| 20260905143510 | 73 | 229 | 0.0 | 0.9 | 0.00 | 0.07 | 0.00 | 94 | 1016.7 |
| 20260905142746 | 73 | 88 | 0.0 | 0.9 | 0.00 | 0.07 | 0.00 | 94 | 1016.7 |
| 20260905142240 | 73 | 313 | 0.0 | 0.9 | 0.00 | 0.07 | 0.00 | 94 | 1016.5 |
| 20260905141734 | 73 | 275 | 0.0 | 0.9 | 0.00 | 0.07 | 0.00 | 94 | 1016.6 |
| 20260905141228 | 73 | 276 | 0.0 | 0.9 | 0.00 | 0.07 | 0.00 | 94 | 1016.7 |
| 20260905140723 | 73 | 38 | 0.0 | 0.9 | 0.00 | 0.07 | 0.00 | 94 | 1016.7 |
| 20260905140216 | 73 | 0 | 0.0 | 0.9 | 0.00 | 0.07 | 0.00 | 94 | 1016.7 |
| 20260905140153 | 73 | 5 | 0.0 | 0.9 | 0.00 | 0.07 | 0.00 | 94 | 1016.6 |
| 20260905135205 | 73 | 347 | 0.0 | 0.9 | 0.00 | 0.07 | 0.00 | 94 | 1016.6 |
| 20260905134926 | 73 | 24 | 0.0 | 0.9 | 0.00 | 0.07 | 0.00 | 94 | 1016.5 |
| 20260905134155 | 73 | 93 | 0.0 | 0.9 | 0.00 | 0.07 | 0.00 | 94 | 1016.5 |
| 20260905133655 | 73 | 270 | 0.0 | 0.9 | 0.00 | 0.07 | 0.00 | 94 | 1016.5 |
| 20260905133155 | 72 | 72 | 0.0 | 0.9 | 0.00 | 0.07 | 0.00 | 94 | 1016.5 |
| 20260905132655 | 72 | 355 | 0.0 | 0.9 | 0.00 | 0.07 | 0.00 | 94 | 1016.5 |
| 20260905132155 | 72 | 150 | 0.0 | 0.9 | 0.00 | 0.07 | 0.00 | 94 | 1016.5 |
| 20260905131654 | 72 | 98 | 0.0 | 0.9 | 0.00 | 0.07 | 0.00 | 94 | 1016.5 |
| 20260905131155 | 72 | 117 | 0.0 | 0.0 | 0.00 | 0.07 | 0.00 | 94 | 1016.6 |
| 20260905130916 | 72 | 30 | 0.0 | 0.0 | 0.00 | 0.07 | 0.00 | 94 | 1016.8 |
| 20260905130154 | 72 | 111 | 0.0 | 0.0 | 0.00 | 0.07 | 0.00 | 94 | 1016.8 |
| 20260905125655 | 72 | 250 | 0.0 | 0.9 | 0.00 | 0.07 | 0.00 | 94 | 1016.4 |
| 20260905125154 | 72 | 288 | 0.0 | 0.9 | 0.00 | 0.07 | 0.00 | 94 | 1016.4 |
| 20260905124655 | 72 | 126 | 0.0 | 0.0 | 0.00 | 0.07 | 0.00 | 94 | 1016.3 |
| 20260905124155 | 72 | 132 | 0.0 | 0.9 | 0.00 | 0.07 | 0.00 | 94 | 1016.3 |
| 20260905123654 | 71 | 132 | 0.0 | 0.9 | 0.00 | 0.07 | 0.00 | 94 | 1016.2 |
| 20260905123154 | 72 | 69 | 0.0 | 0.0 | 0.00 | 0.07 | 0.00 | 94 | 1016.2 |
| 20260905122655 | 71 | 211 | 0.0 | 0.0 | 0.00 | 0.07 | 0.00 | 94 | 1016.0 |
| 20260905122418 | 71 | 211 | 0.0 | 0.0 | 0.00 | 0.07 | 0.00 | 94 | 1015.8 |
| 20260905121656 | 71 | 211 | 0.0 | 0.0 | 0.00 | 0.07 | 0.00 | 93 | 1015.7 |
| 20260905121157 | 71 | 211 | 0.0 | 0.0 | 0.00 | 0.07 | 0.00 | 93 | 1015.7 |
| 20260905120650 | 71 | 211 | 0.0 | 0.0 | 0.00 | 0.07 | 0.00 | 94 | 1015.6 |
| 20260905120406 | 71 | 255 | 0.0 | 0.0 | 0.00 | 0.07 | 0.00 | 93 | 1015.5 |
| 20260905115638 | 71 | 44 | 0.0 | 0.0 | 0.00 | 0.07 | 0.00 | 93 | 1015.4 |
| 20260905115132 | 71 | 41 | 0.0 | 0.9 | 0.00 | 0.07 | 0.00 | 93 | 1015.4 |
| 20260905114624 | 71 | 41 | 0.0 | 0.9 | 0.00 | 0.07 | 0.00 | 93 | 1015.5 |
| 20260905114118 | 71 | 232 | 0.0 | 0.0 | 0.00 | 0.07 | 0.00 | 93 | 1015.2 |